カタログに戻る

SL-8 R/B

運用中LEO
NORAD 9444·ROCKET BODY·🇷🇺 Russia

打ち上げ Sep 29, 1976 から Plesetsk Cosmodrome

Loading…

次のパス (今後24時間)

TLE

最新Source: Space-Track

元期: Sep 14, 2026, 12:55 UTC

1  9444U 76098B   26257.53866087  .00000102  00000-0  41145-4 0  9998
2  9444  74.0508 201.6475 0013967 230.2290 129.7635 14.39409797 54056

AllMySatでSL-8 R/Bをリアルタイム追跡

Download on the App Store